Weather History for Miles City, MT

Change the Weather History Date:

Thursday, February 14, 2013

  Actual Average Record
Temperature  
Mean Temperature 27 °F 24 °F  
Max Temperature 34 °F 35 °F 57 °F (1981)
Min Temperature 20 °F 13 °F -17 °F (1938)
Degree Days  
Heating Degree Days 38 41  
Month to date heating degree days 445 595  
Since 1 July heating degree days 4725 5191  
Cooling Degree Days 0 0  
Month to date cooling degree days 0 0  
Year to date cooling degree days 0 0  
Moisture  
Dew Point 17 °F    
Average Humidity 67    
Maximum Humidity 84    
Minimum Humidity 49    
Precipitation  
Precipitation T in 0.01 in 0.19 in (1979)
Month to date precipitation T 0.10  
Year to date precipitation 0.18 0.42  
Sea Level Pressure  
Sea Level Pressure 30.30 in    
Wind  
Wind Speed 15 mph (NW)    
Max Wind Speed 33 mph    
Max Gust Speed 44 mph    
Visibility 10 miles    
Events Snow    
T = Trace of Precipitation, MM = Missing Value Source: NWS Daily Summary

Daily Weather History Graph

Daily Weather History Graph

Search for Another Location

Airport:

Trip Planner

Search our weather history database for the weather conditions in past years. The results will help you decide how hot, cold, wet, or windy it might be!

Date:

Astronomy

Feb. 14, 2013 Rise Set
Actual Time 7:08 AM MST 5:28 PM MST
Civil Twilight 6:36 AM MST 5:59 PM MST
Nautical Twilight 6:01 AM MST 6:34 PM MST
Astronomical Twilight 5:26 AM MST 7:09 PM MST
Moon 8:51 AM MST (2/14) 10:55 PM MST (2/14)
Length of Visible Light 11h 22m
Length of Day
10h 20m
Waxing Crescent, 22% of the Moon is Illuminated
Feb 14
Waxing Crescent
Feb 17
First Quarter
Feb 25
Full
Mar 4
Last Quarter
Mar 11
New

Hourly Weather History & Observations

Time (MST) Temp. Windchill Dew Point Humidity Pressure Visibility Wind Dir Wind Speed Gust Speed Precip Events Conditions
12:53 AM 32.0 °F 17.2 °F 18.0 °F 56% 30.05 in 10.0 mi NW 32.2 mph 41.4 mph N/A   Partly Cloudy
1:53 AM 30.9 °F 17.2 °F 18.0 °F 59% 30.08 in 10.0 mi NW 25.3 mph 32.2 mph N/A   Scattered Clouds
2:53 AM 30.9 °F 15.7 °F 19.0 °F 61% 30.11 in 10.0 mi NW 32.2 mph 39.1 mph N/A   Overcast
3:27 AM 30.2 °F 15.4 °F 19.4 °F 64% 30.08 in 10.0 mi NW 28.8 mph 38.0 mph N/A   Overcast
3:53 AM 30.0 °F 15.4 °F 21.0 °F 69% 30.14 in 10.0 mi NW 27.6 mph 41.4 mph N/A   Overcast
4:53 AM 28.9 °F 14.3 °F 21.0 °F 72% 30.19 in 10.0 mi NNW 26.5 mph 32.2 mph N/A   Overcast
5:53 AM 28.9 °F 16.5 °F 21.0 °F 72% 30.23 in 10.0 mi NNW 18.4 mph 28.8 mph N/A   Overcast
6:53 AM 28.9 °F 16.9 °F 21.9 °F 75% 30.27 in 4.0 mi NW 17.3 mph 27.6 mph 0.00 in Snow Light Snow
7:53 AM 28.9 °F 16.5 °F 21.0 °F 72% 30.31 in 10.0 mi NW 18.4 mph 29.9 mph 0.00 in   Overcast
8:53 AM 28.0 °F 13.0 °F 18.0 °F 66% 30.34 in 9.0 mi NW 26.5 mph 31.1 mph 0.00 in Snow Light Snow
9:06 AM 28.4 °F 13.3 °F 17.6 °F 64% 30.26 in 9.0 mi NW 27.6 mph 35.7 mph 0.00 in Snow Light Snow
9:32 AM 28.4 °F 14.1 °F 15.8 °F 59% 30.28 in 10.0 mi NW 24.2 mph 34.5 mph 0.00 in   Overcast
9:53 AM 28.0 °F 14.3 °F 16.0 °F 61% 30.37 in 10.0 mi NW 21.9 mph - 0.00 in   Mostly Cloudy
10:17 AM 28.4 °F 15.1 °F 15.8 °F 59% 30.29 in 10.0 mi NW 20.7 mph - N/A   Overcast
10:53 AM 28.0 °F 15.7 °F 16.0 °F 61% 30.38 in 9.0 mi NW 17.3 mph - 0.00 in Snow Light Snow
11:53 AM 28.9 °F 17.3 °F 16.0 °F 58% 30.39 in 10.0 mi NW 16.1 mph - 0.00 in   Overcast
12:53 PM 30.0 °F 20.5 °F 17.1 °F 59% 30.38 in 10.0 mi NNW 11.5 mph - N/A   Overcast
1:53 PM 30.0 °F 19.1 °F 17.1 °F 59% 30.38 in 10.0 mi NNW 15.0 mph - N/A   Overcast
2:53 PM 30.0 °F 21.7 °F 18.0 °F 61% 30.38 in 10.0 mi North 9.2 mph - N/A   Overcast
3:53 PM 32.0 °F 23.0 °F 15.1 °F 50% 30.38 in 10.0 mi NNW 11.5 mph - N/A   Clear
4:53 PM 30.9 °F 24.3 °F 16.0 °F 54% 30.38 in 10.0 mi NNW 6.9 mph - N/A   Clear
5:53 PM 27.0 °F 21.6 °F 15.1 °F 61% 30.39 in 10.0 mi NNW 4.6 mph - N/A   Clear
6:53 PM 24.1 °F 15.2 °F 15.1 °F 69% 30.39 in 10.0 mi NNW 8.1 mph - N/A   Clear
7:53 PM 21.9 °F 12.5 °F 15.1 °F 75% 30.38 in 10.0 mi NNW 8.1 mph - N/A   Clear
8:53 PM 19.9 °F - 14.0 °F 78% 30.40 in 10.0 mi Calm Calm - N/A   Clear
9:53 PM 21.0 °F 13.4 °F 16.0 °F 81% 30.38 in 10.0 mi NNW 5.8 mph - N/A   Mostly Cloudy
10:53 PM 21.9 °F 15.7 °F 17.1 °F 82% 30.40 in 10.0 mi WNW 4.6 mph - N/A   Overcast
11:53 PM 23.0 °F - 17.1 °F 78% 30.41 in 10.0 mi Calm Calm - N/A   Overcast